Location: Unnamed Road
(35.9029°N, 51.9749°E)
Time: 17:09:21
(UTC+04:30)

ISS - Visible Passes

Search period start: 06 April 2020 00:00
Search period end: 16 April 2020 00:00
Orbit: 418 x 423 km, 51.6° (Epoch: 06 April)

Date Brightness Start Highest point End Pass type
(mag) Time Alt. Az. Time Alt. Az. Time Alt. Az.
06 Apr -1.8 21:19:34 10° WNW 21:22:17 23° SW 21:22:22 23° SW visible
07 Apr -2.8 20:32:05 10° WNW 20:35:16 42° SW 20:37:35 16° SSE visible
09 Apr -0.9 20:36:04 10° WSW 20:37:29 12° SW 20:38:56 10° SSW visible
